START_TIME,STEP,MOV.,M15,t_acc.,M20,t_acc.
1986-01-25 15:00:45.280 ,7,0,0.,24.0,0.,24.0
1986-01-25 15:01:09.280 ,6,1,0.,24.0,0.,24.0
1986-01-25 15:01:33.280 ,6,0,0.,24.0,0.,24.0
1986-01-25 15:01:57.280 ,5,1,0.,24.0,0.,24.0
1986-01-25 15:02:21.280 ,5,0,0.,24.0,0.,24.0
1986-01-25 15:02:45.280 ,4,1,1.,24.0,0.,24.0
1986-01-25 15:03:09.280 ,4,0,0.,24.0,0.,24.0
1986-01-25 15:03:33.280 ,3,1,0.,24.0,0.,24.0
1986-01-25 15:03:57.280 ,3,0,0.,24.0,0.,24.0
1986-01-25 15:04:21.280 ,2,1,0.,24.0,0.,24.0
1986-01-25 15:04:45.280 ,2,0,1.,24.0,0.,24.0
1986-01-25 15:05:09.280 ,1,1,0.,24.0,0.,24.0
1986-01-25 15:05:33.280 ,1,0,0.,24.0,0.,24.0
1986-01-25 15:05:57.280 ,0,1,0.,24.0,0.,24.0
1986-01-25 15:06:21.280 ,0,0,0.,24.0,0.,24.0
1986-01-25 15:06:45.280 ,0,1,0.,24.0,0.,24.0
1986-01-25 15:07:09.280 ,0,0,1.,24.0,0.,24.0
1986-01-25 15:07:33.280 ,1,1,0.,24.0,0.,24.0
1986-01-25 15:07:57.280 ,1,0,0.,24.0,0.,24.0
1986-01-25 15:08:21.280 ,2,1,0.,24.0,0.,24.0
1986-01-25 15:08:45.280 ,2,0,0.,24.0,0.,24.0
1986-01-25 15:09:09.280 ,3,1,0.,24.0,0.,24.0
1986-01-25 15:09:33.280 ,3,0,0.,24.0,0.,24.0
1986-01-25 15:09:57.280 ,4,1,0.,24.0,0.,24.0
1986-01-25 15:10:21.280 ,4,0,0.,24.0,0.,24.0
1986-01-25 15:10:45.280 ,5,1,0.,24.0,0.,24.0
1986-01-25 15:11:09.280 ,5,0,0.,24.0,0.,24.0
1986-01-25 15:11:33.280 ,6,1,1.,24.0,0.,24.0
1986-01-25 15:11:57.280 ,6,0,0.,24.0,0.,24.0
1986-01-25 15:12:21.280 ,7,1,1.,24.0,0.,24.0
1986-01-25 15:12:45.280 ,7,0,0.,24.0,0.,24.0
1986-01-25 15:13:09.280 ,7,1,0.,24.0,0.,24.0
1986-01-25 15:13:33.280 ,7,0,0.,24.0,0.,24.0
1986-01-25 15:13:57.280 ,6,1,0.,24.0,0.,24.0
1986-01-25 15:14:21.280 ,6,0,0.,24.0,0.,24.0
1986-01-25 15:14:45.280 ,5,1,0.,24.0,0.,24.0
1986-01-25 15:15:09.280 ,5,0,0.,24.0,0.,24.0
1986-01-25 15:15:33.280 ,4,1,0.,24.0,0.,24.0
1986-01-25 15:15:57.280 ,4,0,1.,24.0,0.,24.0
1986-01-25 15:16:21.280 ,3,1,0.,24.0,0.,24.0
1986-01-25 15:16:45.280 ,3,0,0.,24.0,0.,24.0
1986-01-25 15:17:09.280 ,2,1,0.,24.0,0.,24.0
1986-01-25 15:17:33.280 ,2,0,0.,24.0,0.,24.0
1986-01-25 15:17:57.280 ,1,1,0.,24.0,0.,24.0
1986-01-25 15:18:21.280 ,1,0,0.,24.0,0.,24.0
1986-01-25 15:18:45.280 ,0,1,1.,24.0,0.,24.0
1986-01-25 15:19:09.280 ,0,0,1.,24.0,0.,24.0
1986-01-25 15:19:33.280 ,0,1,0.,24.0,0.,24.0
1986-01-25 15:19:57.280 ,0,0,0.,24.0,0.,24.0
1986-01-25 15:20:21.280 ,1,1,0.,24.0,0.,24.0
1986-01-25 15:20:45.280 ,1,0,0.,24.0,0.,24.0
1986-01-25 15:21:09.280 ,2,1,0.,24.0,0.,24.0
1986-01-25 15:21:33.280 ,2,0,1.,24.0,0.,24.0
1986-01-25 15:21:57.280 ,3,1,0.,24.0,0.,24.0
1986-01-25 15:22:21.280 ,3,0,2.,24.0,0.,24.0
1986-01-25 15:22:45.280 ,4,1,1.,24.0,0.,24.0
1986-01-25 15:23:09.280 ,4,0,0.,24.0,0.,24.0
1986-01-25 15:23:33.280 ,5,1,0.,24.0,0.,24.0
1986-01-25 15:23:57.280 ,5,0,0.,24.0,0.,24.0
1986-01-25 15:24:21.280 ,6,1,0.,24.0,0.,24.0
1986-01-25 15:24:45.280 ,6,0,0.,24.0,0.,24.0
1986-01-25 15:25:09.280 ,7,1,0.,24.0,0.,24.0
1986-01-25 15:25:33.280 ,7,0,0.,24.0,0.,24.0
1986-01-25 15:25:57.280 ,7,1,0.,24.0,0.,24.0
1986-01-25 15:26:21.280 ,7,0,0.,24.0,0.,24.0
1986-01-25 15:26:45.280 ,6,1,0.,24.0,0.,24.0
1986-01-25 15:27:09.280 ,6,0,0.,24.0,0.,24.0
1986-01-25 15:27:33.280 ,5,1,0.,24.0,0.,24.0
1986-01-25 15:27:57.280 ,5,0,0.,24.0,0.,24.0
1986-01-25 15:28:21.280 ,4,1,0.,24.0,0.,24.0
1986-01-25 15:28:45.280 ,4,0,1.,24.0,0.,24.0
1986-01-25 15:29:09.280 ,3,1,0.,24.0,0.,24.0
1986-01-25 15:29:33.280 ,3,0,0.,24.0,0.,24.0
1986-01-25 15:29:57.280 ,2,1,0.,24.0,0.,24.0
1986-01-25 15:30:21.280 ,2,0,0.,24.0,0.,24.0
1986-01-25 15:30:45.280 ,1,1,0.,24.0,0.,24.0
1986-01-25 15:31:09.280 ,1,0,0.,24.0,0.,24.0
1986-01-25 15:31:33.280 ,0,1,0.,24.0,0.,24.0
1986-01-25 15:31:57.280 ,0,0,0.,24.0,0.,24.0
1986-01-25 15:32:21.280 ,0,1,0.,24.0,0.,24.0
1986-01-25 15:32:45.280 ,0,0,0.,24.0,0.,24.0
1986-01-25 15:33:09.280 ,1,1,0.,24.0,0.,24.0
1986-01-25 15:33:33.280 ,1,0,0.,24.0,0.,24.0
1986-01-25 15:33:57.280 ,2,1,0.,24.0,0.,24.0
1986-01-25 15:34:21.280 ,2,0,0.,24.0,0.,24.0
1986-01-25 15:34:45.280 ,3,1,0.,24.0,0.,24.0
1986-01-25 15:35:09.280 ,3,0,0.,24.0,0.,24.0
1986-01-25 15:35:33.280 ,4,1,0.,24.0,0.,24.0
1986-01-25 15:35:57.280 ,4,0,1.,24.0,0.,24.0
1986-01-25 15:36:21.280 ,5,1,0.,24.0,0.,24.0
1986-01-25 15:36:45.280 ,5,0,0.,24.0,0.,24.0
1986-01-25 15:37:09.280 ,6,1,1.,24.0,0.,24.0
1986-01-25 15:37:33.280 ,6,0,0.,24.0,0.,24.0
1986-01-25 15:37:57.280 ,7,1,0.,24.0,0.,24.0
1986-01-25 15:38:21.280 ,7,0,0.,24.0,0.,24.0
1986-01-25 15:38:45.280 ,7,1,0.,24.0,0.,24.0
1986-01-25 15:39:09.280 ,7,0,0.,24.0,0.,24.0
1986-01-25 15:39:33.280 ,6,1,0.,24.0,0.,24.0
1986-01-25 15:39:57.280 ,6,0,0.,24.0,0.,24.0
1986-01-25 15:40:21.280 ,5,1,0.,24.0,0.,24.0
1986-01-25 15:40:45.280 ,5,0,0.,24.0,0.,24.0
1986-01-25 15:41:09.280 ,4,1,0.,24.0,0.,24.0
1986-01-25 15:41:33.280 ,4,0,0.,24.0,0.,24.0
1986-01-25 15:41:57.280 ,3,1,0.,24.0,0.,24.0
1986-01-25 15:42:21.280 ,3,0,0.,24.0,0.,24.0
1986-01-25 15:42:45.280 ,2,1,2.,24.0,0.,24.0
1986-01-25 15:43:09.280 ,2,0,0.,24.0,0.,24.0
1986-01-25 15:43:33.280 ,1,1,0.,24.0,0.,24.0
1986-01-25 15:43:57.280 ,1,0,0.,24.0,0.,24.0
1986-01-25 15:44:21.280 ,0,1,0.,24.0,0.,24.0
1986-01-25 15:44:45.280 ,0,0,0.,24.0,0.,24.0
1986-01-25 15:45:09.280 ,0,1,0.,24.0,0.,24.0
1986-01-25 15:45:33.280 ,0,0,1.,24.0,0.,24.0
1986-01-25 15:45:57.280 ,1,1,0.,24.0,0.,24.0
1986-01-25 15:46:21.280 ,1,0,0.,24.0,0.,24.0
1986-01-25 15:46:45.280 ,2,1,0.,24.0,0.,24.0
1986-01-25 15:47:09.280 ,2,0,0.,24.0,0.,24.0
1986-01-25 15:47:33.280 ,3,1,0.,24.0,0.,24.0
1986-01-25 15:47:57.280 ,3,0,1.,24.0,0.,24.0
1986-01-25 15:48:21.270 ,4,1,0.,24.0,0.,24.0
1986-01-25 15:48:45.270 ,4,0,0.,24.0,0.,24.0
1986-01-25 15:49:09.270 ,5,1,0.,24.0,0.,24.0
1986-01-25 15:49:33.270 ,5,0,0.,24.0,0.,24.0
1986-01-25 15:49:57.270 ,6,1,1.,24.0,0.,24.0
1986-01-25 15:50:21.270 ,6,0,0.,24.0,0.,24.0
1986-01-25 15:50:45.270 ,7,1,0.,24.0,0.,24.0
1986-01-25 15:51:09.270 ,7,0,0.,24.0,0.,24.0
1986-01-25 15:51:33.270 ,7,1,0.,24.0,0.,24.0
1986-01-25 15:51:57.270 ,7,0,0.,24.0,0.,24.0
1986-01-25 15:52:21.270 ,6,1,0.,24.0,0.,24.0
1986-01-25 15:52:45.270 ,6,0,0.,24.0,0.,24.0
1986-01-25 15:53:09.270 ,5,1,0.,24.0,0.,24.0
1986-01-25 15:53:33.270 ,5,0,0.,24.0,0.,24.0
1986-01-25 15:53:57.270 ,4,1,0.,24.0,0.,24.0
1986-01-25 15:54:21.270 ,4,0,0.,24.0,0.,24.0
1986-01-25 15:54:45.270 ,3,1,1.,24.0,0.,24.0
1986-01-25 15:55:09.270 ,3,0,0.,24.0,0.,24.0
1986-01-25 15:55:33.270 ,2,1,0.,24.0,0.,24.0
1986-01-25 15:55:57.270 ,2,0,0.,24.0,0.,24.0
1986-01-25 15:56:21.270 ,1,1,0.,24.0,0.,24.0
1986-01-25 15:56:45.270 ,1,0,0.,24.0,0.,24.0
1986-01-25 15:57:09.270 ,0,1,1.,24.0,0.,24.0
1986-01-25 15:57:33.270 ,0,0,0.,24.0,0.,24.0
1986-01-25 15:57:57.270 ,0,1,0.,24.0,0.,24.0
1986-01-25 15:58:21.270 ,0,0,0.,24.0,0.,24.0
1986-01-25 15:58:45.270 ,1,1,0.,24.0,0.,24.0
1986-01-25 15:59:09.270 ,1,0,0.,24.0,0.,24.0
1986-01-25 15:59:33.270 ,2,1,0.,24.0,0.,24.0
1986-01-25 15:59:57.270 ,2,0,0.,24.0,0.,24.0
1986-01-25 16:00:21.280 ,3,1,0.,24.0,0.,24.0
1986-01-25 16:00:45.280 ,3,0,0.,24.0,0.,24.0
1986-01-25 16:01:09.280 ,4,1,0.,24.0,0.,24.0
1986-01-25 16:01:33.280 ,4,0,0.,24.0,0.,24.0
1986-01-25 16:01:57.280 ,5,1,0.,24.0,0.,24.0
1986-01-25 16:02:21.280 ,5,0,1.,24.0,0.,24.0
1986-01-25 16:02:45.270 ,6,1,0.,24.0,0.,24.0
1986-01-25 16:03:09.270 ,6,0,0.,24.0,0.,24.0
1986-01-25 16:03:33.270 ,7,1,0.,24.0,0.,24.0
1986-01-25 16:03:57.270 ,0,0,0.,24.0,0.,24.0
1986-01-25 16:04:55.470 ,0,0,,0,,0
1986-01-25 16:06:00.870 ,0,0,0.,24.0,0.,24.0
1986-01-25 16:06:21.270 ,0,0,0.,24.0,0.,24.0
1986-01-25 16:06:45.270 ,4,1,0.,24.0,0.,24.0
1986-01-25 16:07:09.270 ,4,0,0.,24.0,0.,24.0
1986-01-25 16:07:33.270 ,3,1,0.,24.0,0.,24.0
1986-01-25 16:07:57.270 ,3,0,0.,24.0,0.,24.0
1986-01-25 16:08:21.270 ,2,1,0.,24.0,0.,24.0
1986-01-25 16:08:45.270 ,2,0,0.,24.0,0.,24.0
1986-01-25 16:09:09.270 ,1,1,0.,24.0,0.,24.0
1986-01-25 16:09:33.270 ,1,0,0.,24.0,0.,24.0
1986-01-25 16:09:57.270 ,0,1,0.,24.0,0.,24.0
1986-01-25 16:10:21.270 ,0,0,0.,24.0,0.,24.0
1986-01-25 16:10:45.270 ,0,1,0.,24.0,0.,24.0
1986-01-25 16:11:09.270 ,0,0,0.,24.0,0.,24.0
1986-01-25 16:11:33.270 ,1,1,0.,24.0,0.,24.0
1986-01-25 16:11:57.270 ,1,0,0.,24.0,0.,24.0
1986-01-25 16:12:21.270 ,2,1,0.,24.0,0.,24.0
1986-01-25 16:12:45.270 ,2,0,0.,24.0,0.,24.0
1986-01-25 16:13:09.270 ,3,1,0.,24.0,0.,24.0
1986-01-25 16:13:33.270 ,0,0,,0,,0
1986-01-25 16:13:59.670 ,0,0,,0,,0
1986-01-25 16:14:21.270 ,0,0,0.,24.0,0.,24.0
1986-01-25 16:14:45.270 ,5,1,0.,24.0,0.,24.0
1986-01-25 16:15:09.270 ,5,0,0.,24.0,0.,24.0
1986-01-25 16:15:33.270 ,6,1,1.,24.0,0.,24.0
1986-01-25 16:15:57.270 ,0,0,,0,,0
1986-01-25 16:16:24.270 ,0,0,0.,24.0,0.,24.0
1986-01-25 16:16:45.270 ,0,0,0.,24.0,0.,24.0
1986-01-25 16:17:09.270 ,7,1,0.,24.0,0.,24.0
1986-01-25 16:17:33.270 ,7,0,0.,24.0,0.,24.0
1986-01-25 16:17:57.270 ,6,1,0.,24.0,0.,24.0
1986-01-25 16:18:21.270 ,6,0,0.,24.0,0.,24.0
1986-01-25 16:18:45.270 ,5,1,0.,24.0,0.,24.0
1986-01-25 16:19:09.270 ,5,0,0.,24.0,0.,24.0
1986-01-25 16:19:33.270 ,4,1,0.,24.0,0.,24.0
1986-01-25 16:19:57.270 ,4,0,0.,24.0,0.,24.0
1986-01-25 16:20:21.270 ,3,1,0.,24.0,0.,24.0
1986-01-25 16:20:45.270 ,3,0,0.,24.0,0.,24.0
1986-01-25 16:21:09.270 ,2,1,0.,24.0,0.,24.0
1986-01-25 16:21:33.270 ,2,0,0.,24.0,0.,24.0
1986-01-25 16:21:57.270 ,1,1,0.,24.0,0.,24.0
1986-01-25 16:22:21.270 ,1,0,0.,24.0,0.,24.0
1986-01-25 16:22:45.270 ,0,1,0.,24.0,0.,24.0
1986-01-25 16:23:09.270 ,0,0,0.,24.0,0.,24.0
1986-01-25 16:23:33.270 ,0,1,0.,24.0,0.,24.0
1986-01-25 16:23:57.270 ,0,0,0.,24.0,0.,24.0
1986-01-25 16:24:21.270 ,1,1,0.,24.0,0.,24.0
1986-01-25 16:24:45.270 ,1,0,1.,24.0,0.,24.0
1986-01-25 16:25:09.270 ,2,1,0.,24.0,0.,24.0
1986-01-25 16:25:33.270 ,2,0,0.,24.0,0.,24.0
1986-01-25 16:25:57.270 ,3,1,0.,24.0,0.,24.0
1986-01-25 16:26:21.270 ,3,0,0.,24.0,0.,24.0
1986-01-25 16:26:45.270 ,4,1,0.,24.0,0.,24.0
1986-01-25 16:27:09.270 ,4,0,0.,24.0,0.,24.0
1986-01-25 16:27:33.270 ,5,1,0.,24.0,0.,24.0
1986-01-25 16:27:57.270 ,5,0,0.,24.0,0.,24.0
1986-01-25 16:28:21.270 ,6,1,1.,24.0,0.,24.0
1986-01-25 16:28:45.270 ,6,0,0.,24.0,0.,24.0
1986-01-25 16:29:09.270 ,7,1,0.,24.0,0.,24.0
1986-01-25 16:29:33.270 ,7,0,0.,24.0,0.,24.0
1986-01-25 16:29:57.270 ,7,1,1.,24.0,0.,24.0
1986-01-25 16:30:21.270 ,7,0,0.,24.0,0.,24.0
1986-01-25 16:30:45.270 ,6,1,0.,24.0,0.,24.0
1986-01-25 16:31:09.270 ,6,0,0.,24.0,0.,24.0
1986-01-25 16:31:33.270 ,5,1,0.,24.0,0.,24.0
1986-01-25 16:31:57.270 ,5,0,0.,24.0,0.,24.0
1986-01-25 16:32:21.270 ,4,1,0.,24.0,0.,24.0
1986-01-25 16:32:45.270 ,4,0,0.,24.0,0.,24.0
1986-01-25 16:33:09.270 ,3,1,0.,24.0,0.,24.0
1986-01-25 16:33:33.270 ,3,0,0.,24.0,0.,24.0
1986-01-25 16:33:57.270 ,2,1,0.,24.0,0.,24.0
1986-01-25 16:34:21.270 ,2,0,0.,24.0,0.,24.0
1986-01-25 16:34:45.270 ,1,1,0.,24.0,0.,24.0
1986-01-25 16:35:09.270 ,1,0,0.,24.0,0.,24.0
1986-01-25 16:35:33.270 ,0,1,0.,24.0,0.,24.0
1986-01-25 16:35:57.270 ,0,0,0.,24.0,0.,24.0
1986-01-25 16:36:21.270 ,0,1,0.,24.0,0.,24.0
1986-01-25 16:36:45.270 ,0,0,0.,24.0,0.,24.0
1986-01-25 16:37:09.270 ,1,1,0.,24.0,0.,24.0
1986-01-25 16:37:33.270 ,1,0,0.,24.0,0.,24.0
1986-01-25 16:37:57.270 ,2,1,0.,24.0,0.,24.0
1986-01-25 16:38:21.270 ,2,0,2.,24.0,0.,24.0
1986-01-25 16:38:45.270 ,3,1,0.,24.0,0.,24.0
1986-01-25 16:39:09.270 ,3,0,0.,24.0,0.,24.0
1986-01-25 16:39:33.270 ,4,1,1.,24.0,0.,24.0
1986-01-25 16:39:57.270 ,4,0,0.,24.0,0.,24.0
1986-01-25 16:40:21.270 ,5,1,0.,24.0,0.,24.0
1986-01-25 16:40:45.270 ,5,0,0.,24.0,0.,24.0
1986-01-25 16:41:09.270 ,6,1,0.,24.0,0.,24.0
1986-01-25 16:41:33.270 ,6,0,1.,24.0,0.,24.0
1986-01-25 16:41:57.270 ,7,1,0.,24.0,0.,24.0
1986-01-25 16:42:21.270 ,7,0,0.,24.0,0.,24.0
1986-01-25 16:42:45.270 ,7,1,0.,24.0,0.,24.0
1986-01-25 16:43:09.270 ,7,0,0.,24.0,0.,24.0
1986-01-25 16:43:33.270 ,6,1,0.,24.0,0.,24.0
1986-01-25 16:43:57.270 ,6,0,0.,24.0,0.,24.0
1986-01-25 16:44:21.270 ,5,1,0.,24.0,0.,24.0
1986-01-25 16:44:45.270 ,5,0,0.,24.0,0.,24.0
1986-01-25 16:45:09.270 ,4,1,0.,24.0,0.,24.0
1986-01-25 16:45:33.270 ,4,0,0.,24.0,0.,24.0
1986-01-25 16:45:57.270 ,3,1,0.,24.0,0.,24.0
1986-01-25 16:46:21.270 ,3,0,0.,24.0,0.,24.0
1986-01-25 16:46:45.270 ,2,1,0.,24.0,0.,24.0
1986-01-25 16:47:09.270 ,2,0,0.,24.0,0.,24.0
1986-01-25 16:47:33.270 ,1,1,0.,24.0,0.,24.0
1986-01-25 16:47:57.270 ,1,0,0.,24.0,0.,24.0
1986-01-25 16:48:21.270 ,0,1,0.,24.0,0.,24.0
1986-01-25 16:48:45.270 ,0,0,0.,24.0,0.,24.0
1986-01-25 16:49:09.270 ,0,1,0.,24.0,0.,24.0
1986-01-25 16:49:33.270 ,0,0,0.,24.0,0.,24.0
1986-01-25 16:49:57.270 ,1,1,0.,24.0,0.,24.0
1986-01-25 16:50:21.270 ,1,0,1.,24.0,0.,24.0
1986-01-25 16:50:45.270 ,2,1,0.,24.0,0.,24.0
1986-01-25 16:51:09.270 ,2,0,0.,24.0,0.,24.0
1986-01-25 16:51:33.270 ,3,1,0.,24.0,0.,24.0
1986-01-25 16:51:57.270 ,3,0,0.,24.0,0.,24.0
1986-01-25 16:52:21.270 ,4,1,1.,24.0,0.,24.0
1986-01-25 16:52:45.270 ,4,0,0.,24.0,0.,24.0
1986-01-25 16:53:09.270 ,5,1,1.,24.0,0.,24.0
1986-01-25 16:53:33.270 ,5,0,0.,24.0,0.,24.0
1986-01-25 16:53:57.270 ,6,1,0.,24.0,0.,24.0
1986-01-25 16:54:21.270 ,6,0,0.,24.0,0.,24.0
1986-01-25 16:54:45.270 ,7,1,0.,24.0,0.,24.0
1986-01-25 16:55:09.270 ,7,0,0.,24.0,0.,24.0
1986-01-25 16:55:33.270 ,7,1,0.,24.0,0.,24.0
1986-01-25 16:55:57.270 ,7,0,0.,24.0,0.,24.0
1986-01-25 16:56:21.270 ,6,1,0.,24.0,0.,24.0
1986-01-25 16:56:45.270 ,6,0,0.,24.0,0.,24.0
1986-01-25 16:57:09.270 ,5,1,0.,24.0,0.,24.0
1986-01-25 16:57:33.270 ,5,0,0.,24.0,0.,24.0
1986-01-25 16:57:57.270 ,4,1,0.,24.0,0.,24.0
1986-01-25 16:58:21.270 ,4,0,0.,24.0,0.,24.0
1986-01-25 16:58:45.270 ,3,1,0.,24.0,0.,24.0
1986-01-25 16:59:09.270 ,3,0,0.,24.0,0.,24.0
1986-01-25 16:59:33.270 ,2,1,1.,24.0,0.,24.0
1986-01-25 16:59:57.270 ,2,0,1.,24.0,0.,24.0
1986-01-25 17:00:21.270 ,1,1,0.,24.0,0.,24.0
1986-01-25 17:00:45.270 ,1,0,0.,24.0,0.,24.0
1986-01-25 17:01:09.270 ,0,1,0.,24.0,0.,24.0
1986-01-25 17:01:33.270 ,0,0,0.,24.0,0.,24.0
1986-01-25 17:01:57.270 ,0,1,0.,24.0,0.,24.0
1986-01-25 17:02:21.270 ,0,0,0.,24.0,0.,24.0
1986-01-25 17:02:45.270 ,1,1,2.,24.0,0.,24.0
1986-01-25 17:03:09.270 ,1,0,1.,24.0,0.,24.0
1986-01-25 17:03:33.270 ,2,1,0.,24.0,0.,24.0
1986-01-25 17:03:57.270 ,2,0,0.,24.0,0.,24.0
1986-01-25 17:04:21.270 ,3,1,0.,24.0,0.,24.0
1986-01-25 17:04:45.270 ,3,0,0.,24.0,0.,24.0
1986-01-25 17:05:09.270 ,4,1,0.,24.0,0.,24.0
1986-01-25 17:05:33.270 ,4,0,0.,24.0,0.,24.0
1986-01-25 17:05:57.270 ,5,1,0.,24.0,0.,24.0
1986-01-25 17:06:21.270 ,5,0,2.,24.0,0.,24.0
1986-01-25 17:06:45.270 ,6,1,0.,24.0,0.,24.0
1986-01-25 17:07:09.270 ,6,0,0.,24.0,0.,24.0
1986-01-25 17:07:33.270 ,7,1,0.,24.0,0.,24.0
1986-01-25 17:07:57.270 ,7,0,0.,24.0,0.,24.0
1986-01-25 17:08:21.270 ,7,1,0.,24.0,0.,24.0
1986-01-25 17:08:45.270 ,7,0,0.,24.0,0.,24.0
1986-01-25 17:09:09.270 ,6,1,0.,24.0,0.,24.0
1986-01-25 17:09:33.270 ,6,0,0.,24.0,0.,24.0
1986-01-25 17:09:57.270 ,5,1,1.,24.0,0.,24.0
1986-01-25 17:10:21.270 ,5,0,0.,24.0,0.,24.0
1986-01-25 17:10:45.270 ,4,1,0.,24.0,0.,24.0
1986-01-25 17:11:09.270 ,4,0,0.,24.0,0.,24.0
1986-01-25 17:11:33.270 ,3,1,0.,24.0,0.,24.0
1986-01-25 17:11:57.270 ,3,0,0.,24.0,0.,24.0
1986-01-25 17:12:21.270 ,2,1,0.,24.0,0.,24.0
1986-01-25 17:12:45.270 ,2,0,0.,24.0,0.,24.0
1986-01-25 17:13:09.270 ,1,1,0.,24.0,0.,24.0
1986-01-25 17:13:33.270 ,1,0,0.,24.0,0.,24.0
1986-01-25 17:13:57.270 ,0,1,0.,24.0,0.,24.0
1986-01-25 17:14:21.270 ,0,0,0.,24.0,0.,24.0
1986-01-25 17:14:45.270 ,0,1,0.,24.0,0.,24.0
1986-01-25 17:15:09.270 ,0,0,0.,24.0,0.,24.0
1986-01-25 17:15:33.270 ,1,1,0.,24.0,0.,24.0
1986-01-25 17:15:57.270 ,1,0,1.,24.0,0.,24.0
1986-01-25 17:16:21.270 ,2,1,0.,24.0,0.,24.0
1986-01-25 17:16:45.270 ,2,0,0.,24.0,0.,24.0
1986-01-25 17:17:09.270 ,3,1,0.,24.0,0.,24.0
1986-01-25 17:17:33.270 ,3,0,0.,24.0,0.,24.0
1986-01-25 17:17:57.270 ,4,1,0.,24.0,0.,24.0
1986-01-25 17:18:21.270 ,4,0,0.,24.0,0.,24.0
1986-01-25 17:18:45.270 ,5,1,0.,24.0,0.,24.0
1986-01-25 17:19:09.270 ,5,0,0.,24.0,0.,24.0
1986-01-25 17:19:33.270 ,6,1,1.,24.0,0.,24.0
1986-01-25 17:19:57.270 ,6,0,0.,24.0,0.,24.0
1986-01-25 17:20:21.270 ,7,1,0.,24.0,0.,24.0
1986-01-25 17:20:45.270 ,7,0,0.,24.0,0.,24.0
1986-01-25 17:21:09.270 ,7,1,0.,24.0,0.,24.0
1986-01-25 17:21:33.270 ,7,0,1.,24.0,0.,24.0
1986-01-25 17:21:57.270 ,6,1,0.,24.0,0.,24.0
1986-01-25 17:22:21.270 ,6,0,0.,24.0,0.,24.0
1986-01-25 17:22:45.270 ,5,1,0.,24.0,0.,24.0
1986-01-25 17:23:09.270 ,5,0,0.,24.0,0.,24.0
1986-01-25 17:23:33.270 ,4,1,0.,24.0,0.,24.0
1986-01-25 17:23:57.270 ,4,0,0.,24.0,0.,24.0
1986-01-25 17:24:21.270 ,3,1,0.,24.0,0.,24.0
1986-01-25 17:24:45.270 ,3,0,0.,24.0,0.,24.0
1986-01-25 17:25:09.270 ,2,1,0.,24.0,0.,24.0
1986-01-25 17:25:33.270 ,2,0,0.,24.0,0.,24.0
1986-01-25 17:25:57.270 ,1,1,0.,24.0,0.,24.0
1986-01-25 17:26:21.270 ,1,0,0.,24.0,0.,24.0
1986-01-25 17:26:45.270 ,0,1,0.,24.0,0.,24.0
1986-01-25 17:27:09.270 ,0,0,0.,24.0,0.,24.0
1986-01-25 17:27:33.270 ,0,1,0.,24.0,0.,24.0
1986-01-25 17:27:57.270 ,0,0,0.,24.0,0.,24.0
1986-01-25 17:28:21.270 ,1,1,0.,24.0,0.,24.0
1986-01-25 17:28:45.270 ,1,0,0.,24.0,0.,24.0
1986-01-25 17:29:09.270 ,2,1,0.,24.0,0.,24.0
1986-01-25 17:29:33.270 ,2,0,0.,24.0,0.,24.0
1986-01-25 17:29:57.270 ,3,1,0.,24.0,0.,24.0
1986-01-25 17:30:21.270 ,3,0,0.,24.0,0.,24.0
1986-01-25 17:30:45.270 ,4,1,0.,24.0,0.,24.0
1986-01-25 17:31:09.270 ,4,0,0.,24.0,0.,24.0
1986-01-25 17:31:33.270 ,5,1,0.,24.0,0.,24.0
1986-01-25 17:31:57.270 ,5,0,0.,24.0,0.,24.0
1986-01-25 17:32:21.270 ,6,1,1.,24.0,0.,24.0
1986-01-25 17:32:45.270 ,6,0,0.,24.0,0.,24.0
1986-01-25 17:33:09.270 ,7,1,0.,24.0,0.,24.0
1986-01-25 17:33:33.270 ,7,0,0.,24.0,0.,24.0
1986-01-25 17:33:57.270 ,7,1,0.,24.0,0.,24.0
1986-01-25 17:34:21.270 ,7,0,0.,24.0,0.,24.0
1986-01-25 17:34:45.270 ,6,1,1.,24.0,0.,24.0
1986-01-25 17:35:09.270 ,6,0,0.,24.0,0.,24.0
1986-01-25 17:35:33.270 ,5,1,0.,24.0,0.,24.0
1986-01-25 17:35:57.270 ,5,0,0.,24.0,0.,24.0
1986-01-25 17:36:21.270 ,4,1,0.,24.0,0.,24.0
1986-01-25 17:36:45.270 ,4,0,0.,24.0,0.,24.0
1986-01-25 17:37:09.270 ,3,1,0.,24.0,0.,24.0
1986-01-25 17:37:33.270 ,3,0,0.,24.0,0.,24.0
1986-01-25 17:37:57.270 ,2,1,0.,24.0,0.,24.0
1986-01-25 17:38:21.270 ,2,0,0.,24.0,0.,24.0
1986-01-25 17:38:45.270 ,1,1,0.,24.0,0.,24.0
1986-01-25 17:39:09.270 ,1,0,0.,24.0,0.,24.0
1986-01-25 17:39:33.270 ,0,1,0.,24.0,0.,24.0
1986-01-25 17:39:57.270 ,0,0,0.,24.0,0.,24.0
1986-01-25 17:40:21.270 ,0,1,0.,24.0,0.,24.0
1986-01-25 17:40:45.270 ,0,0,1.,24.0,0.,24.0
1986-01-25 17:41:09.270 ,1,1,0.,24.0,0.,24.0
1986-01-25 17:41:33.270 ,1,0,0.,24.0,0.,24.0
1986-01-25 17:41:57.270 ,2,1,0.,24.0,0.,24.0
1986-01-25 17:42:21.270 ,2,0,1.,24.0,0.,24.0
1986-01-25 17:42:45.270 ,3,1,0.,24.0,0.,24.0
1986-01-25 17:43:09.270 ,3,0,0.,24.0,0.,24.0
1986-01-25 17:43:33.270 ,4,1,0.,24.0,0.,24.0
1986-01-25 17:43:57.270 ,4,0,0.,24.0,0.,24.0
1986-01-25 17:44:21.270 ,5,1,0.,24.0,0.,24.0
1986-01-25 17:44:45.270 ,5,0,0.,24.0,0.,24.0
1986-01-25 17:45:09.270 ,6,1,1.,24.0,0.,24.0
1986-01-25 17:45:33.270 ,6,0,0.,24.0,0.,24.0
1986-01-25 17:45:57.270 ,7,1,0.,24.0,0.,24.0
1986-01-25 17:46:21.270 ,7,0,0.,24.0,0.,24.0
1986-01-25 17:46:45.270 ,7,1,0.,24.0,0.,24.0
1986-01-25 17:47:09.270 ,7,0,0.,24.0,0.,24.0
1986-01-25 17:47:33.270 ,6,1,0.,24.0,0.,24.0
1986-01-25 17:47:57.270 ,6,0,0.,24.0,0.,24.0
1986-01-25 17:48:21.270 ,5,1,0.,24.0,0.,24.0
1986-01-25 17:48:45.270 ,5,0,0.,24.0,0.,24.0
1986-01-25 17:49:09.270 ,4,1,0.,24.0,0.,24.0
1986-01-25 17:49:33.270 ,4,0,0.,24.0,0.,24.0
1986-01-25 17:49:57.270 ,3,1,0.,24.0,0.,24.0
1986-01-25 17:50:21.270 ,3,0,1.,24.0,0.,24.0
1986-01-25 17:50:45.270 ,2,1,0.,24.0,0.,24.0
1986-01-25 17:51:09.270 ,2,0,0.,24.0,0.,24.0
1986-01-25 17:51:33.270 ,1,1,0.,24.0,0.,24.0
1986-01-25 17:51:57.270 ,1,0,0.,24.0,0.,24.0
1986-01-25 17:52:21.270 ,0,1,0.,24.0,0.,24.0
1986-01-25 17:52:45.270 ,0,0,0.,24.0,0.,24.0
1986-01-25 17:53:09.270 ,0,1,0.,24.0,0.,24.0
1986-01-25 17:53:33.270 ,0,0,1.,24.0,0.,24.0
1986-01-25 17:53:57.270 ,1,1,1.,24.0,0.,24.0
1986-01-25 17:54:21.270 ,1,0,1.,24.0,0.,24.0
1986-01-25 17:54:45.270 ,2,1,0.,24.0,0.,24.0
1986-01-25 17:55:09.270 ,2,0,0.,24.0,0.,24.0
1986-01-25 17:55:33.270 ,3,1,0.,24.0,0.,24.0
1986-01-25 17:55:57.270 ,3,0,0.,24.0,0.,24.0
1986-01-25 17:56:21.270 ,4,1,0.,24.0,0.,24.0
1986-01-25 17:56:45.270 ,4,0,0.,24.0,0.,24.0
1986-01-25 17:57:09.270 ,5,1,0.,24.0,0.,24.0
1986-01-25 17:57:33.270 ,5,0,0.,24.0,0.,24.0
1986-01-25 17:57:57.270 ,6,1,0.,24.0,0.,24.0
1986-01-25 17:58:21.270 ,6,0,0.,24.0,0.,24.0
1986-01-25 17:58:45.270 ,7,1,2.,24.0,0.,24.0
1986-01-25 17:59:09.270 ,7,0,0.,24.0,0.,24.0
1986-01-25 17:59:33.270 ,7,1,0.,24.0,0.,24.0
1986-01-25 17:59:57.270 ,7,0,0.,24.0,0.,24.0
1986-01-25 18:00:21.270 ,6,1,0.,24.0,0.,24.0
